This page uses our WeatherBlox Daily Observations layout. Learn more.

39.04372, -77.48749

Hourly Observations for November 14, 2017

Temp ( °F °C ) Dew Point ( °F °C ) Humidity (%) Winds ( mph kmh ) Pressure ( in mb ) Visibility ( mi km ) Precip ( " mm )
12:15 am 00:15 Partly Cloudy 45 7 37 3 76 N 5 7 30.39 1029 10 16 0.00 0.00
12:35 am 00:35 Mostly Cloudy 45 7 37 3 76 N 5 7 30.39 1029 10 16 0.00 0.00
12:55 am 00:55 Cloudy 45 7 37 3 76 N 5 7 30.36 1028 10 16 0.00 0.00
1:15 am 01:15 Cloudy 45 7 37 3 76 N 7 11 30.36 1028 10 16 0.00 0.00
1:35 am 01:35 Mostly Cloudy 45 7 37 3 76 N 6 9 30.36 1028 10 16 0.00 0.00
1:55 am 01:55 Partly Cloudy 43 6 37 3 81 N 7 11 30.36 1028 10 16 0.00 0.00
2:15 am 02:15 Clear 41 5 36 2 81 NNW 5 7 30.36 1028 10 16 0.00 0.00
2:35 am 02:35 Clear 41 5 36 2 81 NNW 3 6 30.36 1028 10 16 0.00 0.00
2:55 am 02:55 Clear 41 5 36 2 81 NNW 6 9 30.36 1028 10 16 0.00 0.00
3:15 am 03:15 Partly Cloudy 39 4 36 2 87 NNW 6 9 30.36 1028 10 16 0.00 0.00
3:35 am 03:35 Partly Cloudy 39 4 36 2 87 NNW 5 7 30.36 1028 10 16 0.00 0.00
3:55 am 03:55 Clear 39 4 36 2 87 NNW 5 7 30.36 1028 10 16 0.00 0.00
4:15 am 04:15 Mostly Cloudy 39 4 36 2 87 NNW 5 7 30.36 1028 10 16 0.00 0.00
4:35 am 04:35 Cloudy 41 5 37 3 87 N 6 9 30.39 1029 10 16 0.00 0.00
4:55 am 04:55 Cloudy 43 6 37 3 81 NNW 6 9 30.39 1029 10 16 0.00 0.00
5:15 am 05:15 Cloudy 43 6 37 3 81 N 6 9 30.39 1029 10 16 0.00 0.00
5:35 am 05:35 Cloudy 43 6 37 3 81 NNW 7 11 30.39 1029 10 16 0.00 0.00
5:55 am 05:55 Cloudy 43 6 37 3 81 N 5 7 30.39 1029 10 16 0.00 0.00
6:15 am 06:15 Cloudy 45 7 37 3 76 N 6 9 30.39 1029 10 16 0.00 0.00
6:35 am 06:35 Cloudy 45 7 37 3 76 NNW 6 9 30.39 1029 10 16 0.00 0.00
6:55 am 06:55 Cloudy 43 6 37 3 81 N 5 7 30.39 1029 10 16 0.00 0.00
7:15 am 07:15 Cloudy 43 6 37 3 81 NNW 3 6 30.39 1029 10 16 0.00 0.00
7:35 am 07:35 Cloudy 43 6 37 3 81 NNW 3 6 30.42 1030 10 16 0.00 0.00
7:55 am 07:55 Cloudy 43 6 37 3 81 NNW 5 7 30.42 1030 10 16 0.00 0.00
8:15 am 08:15 Cloudy 45 7 37 3 76 NNW 6 9 30.42 1030 10 16 0.00 0.00
8:35 am 08:35 Cloudy 45 7 37 3 76 N 6 9 30.42 1030 10 16 0.00 0.00
8:55 am 08:55 Cloudy 45 7 36 2 71 N 7 11 30.42 1030 10 16 0.00 0.00
9:15 am 09:15 Cloudy 45 7 36 2 71 N 6 9 30.42 1030 10 16 0.00 0.00
9:35 am 09:35 Cloudy 45 7 36 2 71 N 6 9 30.42 1030 10 16 0.00 0.00
9:55 am 09:55 Cloudy 46 8 36 2 66 N 7 11 30.42 1030 10 16 0.00 0.00
10:15 am 10:15 Cloudy 46 8 36 2 66 N 3 6 30.42 1030 10 16 0.00 0.00
10:35 am 10:35 Cloudy 46 8 36 2 66 N 10 17 30.42 1030 10 16 0.00 0.00
10:55 am 10:55 Cloudy 46 8 36 2 66 N 10 17 30.42 1030 10 16 0.00 0.00
11:15 am 11:15 Cloudy 48 9 36 2 62 N 10 17 30.42 1030 10 16 0.00 0.00
11:35 am 11:35 Cloudy 50 10 34 1 54 N 13 20 30.39 1029 10 16 0.00 0.00
11:55 am 11:55 Cloudy 50 10 32 0 50 N 12 19 30.39 1029 10 16 0.00 0.00
12:15 pm 12:15 Cloudy 50 10 34 1 54 NNW 7 11 30.39 1029 10 16 0.00 0.00
12:35 pm 12:35 Cloudy 48 9 34 1 58 NNW 10 17 30.36 1028 10 16 0.00 0.00
12:55 pm 12:55 Cloudy 48 9 34 1 58 N 10 17 30.36 1028 10 16 0.00 0.00
1:15 pm 13:15 Cloudy 48 9 34 1 58 N 3 6 30.36 1028 10 16 0.00 0.00
1:35 pm 13:35 Cloudy 48 9 34 1 58 N 5 7 30.36 1028 10 16 0.00 0.00
1:55 pm 13:55 Cloudy 48 9 32 0 54 N 8 13 30.33 1027 10 16 0.00 0.00
2:15 pm 14:15 Cloudy 48 9 32 0 54 N 8 13 30.33 1027 10 16 0.00 0.00
2:35 pm 14:35 Cloudy 48 9 32 0 54 NNE 9 15 30.33 1027 10 16 0.00 0.00
2:55 pm 14:55 Cloudy 48 9 32 0 54 N 8 13 30.33 1027 10 16 0.00 0.00
3:15 pm 15:15 Cloudy 46 8 32 0 57 N 7 11 30.33 1027 10 16 0.00 0.00
3:35 pm 15:35 Cloudy 46 8 32 0 57 NNE 8 13 30.33 1027 10 16 0.00 0.00
3:55 pm 15:55 Cloudy 46 8 32 0 57 NNE 8 13 30.33 1027 10 16 0.00 0.00
4:15 pm 16:15 Cloudy 46 8 32 0 57 NNE 10 17 30.33 1027 10 16 0.00 0.00
4:35 pm 16:35 Cloudy 46 8 32 0 57 N 7 11 30.33 1027 10 16 0.00 0.00
4:55 pm 16:55 Cloudy 46 8 32 0 57 NNE 7 11 30.33 1027 10 16 0.00 0.00
5:15 pm 17:15 Cloudy 46 8 32 0 57 NNE 7 11 30.33 1027 10 16 0.00 0.00
5:35 pm 17:35 Cloudy 46 8 34 1 62 NNE 5 7 30.36 1028 10 16 0.00 0.00
5:55 pm 17:55 Cloudy 46 8 34 1 62 NNE 6 9 30.36 1028 10 16 0.00 0.00
6:15 pm 18:15 Cloudy 46 8 34 1 62 NE 5 7 30.36 1028 10 16 0.00 0.00
6:35 pm 18:35 Cloudy 46 8 34 1 62 NNE 3 6 30.36 1028 10 16 0.00 0.00
6:55 pm 18:55 Cloudy 45 7 34 1 66 NNE 3 6 30.36 1028 10 16 0.00 0.00
7:15 pm 19:15 Cloudy 45 7 34 1 66 NNE 3 6 30.36 1028 10 16 0.00 0.00
7:35 pm 19:35 Cloudy 45 7 34 1 66 NNE 5 7 30.36 1028 10 16 0.00 0.00
7:55 pm 19:55 Cloudy 45 7 34 1 66 NE 5 7 30.36 1028 10 16 0.00 0.00
8:15 pm 20:15 Cloudy 45 7 34 1 66 NNE 5 7 30.36 1028 10 16 0.00 0.00
8:35 pm 20:35 Cloudy 45 7 32 0 61 NNE 3 6 30.36 1028 10 16 0.00 0.00
8:55 pm 20:55 Cloudy 45 7 32 0 61 NE 5 7 30.33 1027 10 16 0.00 0.00
9:15 pm 21:15 Cloudy 45 7 32 0 61 NNE 3 6 30.33 1027 10 16 0.00 0.00
9:35 pm 21:35 Cloudy 45 7 32 0 61 N 3 6 30.33 1027 10 16 0.00 0.00
9:55 pm 21:55 Cloudy 45 7 32 0 61 NNE 3 6 30.33 1027 10 16 0.00 0.00
10:15 pm 22:15 Cloudy 45 7 32 0 61 Calm 30.33 1027 10 16 0.00 0.00
10:30 pm 22:30 Mostly Cloudy 43 6 32 0 66 Calm 30.33 1027 10 16 0.00 0.00
10:55 pm 22:55 Clear 41 5 32 0 70 Calm 30.33 1027 10 16 0.00 0.00
11:15 pm 23:15 Clear 39 4 34 1 81 Calm 30.33 1027 10 16 0.00 0.00
11:35 pm 23:35 Clear 37 3 34 1 87 NNW 3 6 30.33 1027 10 16 0.00 0.00
11:55 pm 23:55 Clear 37 3 34 1 87 NNW 3 6 30.33 1027 10 16 0.00 0.00